Vertical_Velocity
-0 -1 -1 -1 -2 -1 -0 -1 -1 -1 1 -1 -0 -2 -1 -3 -1 -4 -12 -2 -1 1 -1 1 3 -1 8 3 2 5 8 1 0 -2 8 1 -4 3 1 -8 5 8 -14 -6 -8
-1 -1 -0 -0 -1 -2 -2 -1 -0 0 -0 1 -0 -0 -1 -2 -3 -8 1 -1 1 1 -6 1 4 4 11 -7 5 15 -4 -2 1 -0 0 1 -6 -3 -3 3 4 10 11 -2 -0
-0 -0 -1 0 0 -0 -1 -1 0 0 0 -1 1 0 0 -2 -4 -17 -7 -2 1 -1 3 -0 10 4 10 3 -7 -6 -4 -7 2 -1 4 -2 2 -3 -3 5 -2 -4 0 -2 -0
-1 -0 0 -0 -1 -1 -1 -1 -2 -0 -0 0 -0 2 1 -0 11 -3 -3 -2 1 2 3 6 13 13 7 4 -3 15 3 -0 3 -1 -3 0 -1 4 3 4 -5 -5 -3 0 -3
-2 -2 -1 -0 0 0 -2 -1 1 -1 -1 -1 0 3 -1 3 -28 4 -1 0 1 1 -3 -2 6 0 -0 1 7 8 -4 0 1 1 2 -5 1 -1 3 6 1 0 1 2 0
1 -0 -1 -2 -2 -1 -2 -3 0 -1 -1 -1 0 3 0 11 4 20 2 -1 1 -6 -0 3 -11 -12 -0 -0 5 -5 -2 -1 -1 -1 1 2 1 3 8 1 6 -0 0 -1 -3
-3 -3 -3 -1 -2 -1 -3 -3 -2 -1 -1 -0 0 2 7 -40 5 2 -1 -4 1 -6 4 -5 2 16 1 3 -4 -0 4 3 -0 -3 -1 -1 12 -1 4 -1 1 2 -0 0 -4
-3 -2 -1 -3 -3 -2 -1 -1 -2 -2 -1 -0 0 2 -10 6 -4 1 3 -0 6 -5 9 -4 -1 1 13 -1 -0 11 16 9 -9 3 -8 12 -5 -1 2 -3 1 3 2 0 0
-2 -2 -2 -4 -4 -2 -1 -4 -2 -1 -2 -1 -3 1 -7 -3 -5 -2 1 -4 1 2 -4 17 10 -5 19 10 10 7 -2 4 6 -2 0 7 -7 2 0 -1 2 2 1 1 2
-2 -3 -2 -2 -4 -6 -4 -1 -5 -1 -6 -3 -4 15 -2 -10 5 -2 1 2 2 5 15 18 12 5 10 14 -10 -6 5 1 -5 1 7 4 -4 3 1 1 -2 -2 2 0 0
-3 -0 -3 -3 -2 -1 -16 18 12 17 14 -0 14 -7 10 7 -3 4 7 6 11 16 4 -2 15 -5 -13 -6 -7 1 4 -1 -4 -2 5 -4 -1 -5 1 3 4 1 2 -0 0
-3 -3 0 -3 -3 -6 2 -9 5 7 -13 -6 -17 -6 -10 -1 12 5 6 13 13 -3 9 24 -3 -13 0 3 4 4 3 -5 -3 -0 7 1 -5 -3 0 -4 -5 -4 0 -1 4
-6 -7 -5 -0 -4 4 -3 1 -4 1 10 -26 -11 -4 -13 23 -10 -2 5 -7 -4 10 -0 -5 -22 4 6 2 11 -1 0 -2 -5 -2 4 8 -0 4 -1 5 2 6 -5 1 -3
-3 -4 -7 -10 4 -11 14 -5 4 -1 10 -14 5 -4 9 -0 3 -3 -19 -25 15 -12 -2 -11 -11 -1 5 -0 5 8 -5 2 2 14 -2 7 -11 2 -3 1 2 -0 2 0 -2
-3 -5 -2 -5 -7 1 -2 -2 -4 5 11 24 12 -4 5 -5 -2 -9 7 41 -5 -9 31 -47 2 4 7 -22 4 -28 3 -3 1 3 15 -5 19 -23 6 5 1 -1 -1 -4 -2
-2 -3 -5 10 6 7 -4 -5 2 25 -9 10 3 -0 10 9 -11 14 4 32 -21 8 9 -17 -5 7 -19 -6 -2 -6 10 6 6 6 18 -15 15 -14 -2 -11 2 2 0 -3 -1
-1 -2 -6 -7 -0 -5 -6 0 19 13 -6 6 6 1 -1 1 5 6 4 16 -0 27 9 9 -7 -0 9 15 12 12 14 5 16 19 -15 -3 21 -26 -6 -4 -6 -5 -2 0 -1
-5 -5 -8 1 2 -3 -4 16 16 -9 6 -1 2 -4 9 4 -3 0 8 7 9 10 3 -1 31 7 -3 -11 -21 -8 -5 -5 -9 -2 -12 4 -7 -43 -11 -3 -1 -2 -2 0 1
-1 14 -3 -14 -5 -0 11 9 0 4 13 3 -17 8 -5 2 7 12 -0 -5 -11 -3 2 7 -7 12 6 -1 9 -6 16 -28 11 -0 15 -10 2 12 2 2 2 1 1 2 -1
-11 9 9 -6 -9 0 16 -6 3 4 1 -2 11 15 4 1 5 12 2 -15 -6 -4 6 -28 15 -7 -8 22 7 7 -19 26 3 7 3 -4 -3 -15 4 -3 0 3 -1 -5 13
-6 6 -7 -15 -6 15 9 6 -1 -6 11 12 2 1 3 4 11 -3 -16 8 -1 -6 6 4 19 -23 25 6 -12 17 11 11 9 6 -1 -0 -12 -9 -6 -5 -4 -3 -5 -4 -2
3 2 -26 -18 17 1 1 7 -2 -4 -1 -3 8 6 4 -0 0 3 8 4 0 5 3 -13 -1 1 -29 -14 -6 -7 -11 -5 8 -9 -3 4 7 1 0 -1 -2 -3 -2 -5 3
4 1 13 -26 1 -3 -5 -4 5 -2 0 -2 0 3 -0 3 3 3 -0 -0 -1 3 8 -5 -2 5 13 43 24 6 -2 -2 -1 7 -7 7 -1 2 0 0 1 -1 1 1 6
5 2 -15 2 1 8 1 -5 -5 -7 3 -0 3 -0 -4 -2 -3 -3 -3 -8 -1 2 -4 5 1 -2 -14 -31 -11 12 3 1 1 9 -10 -10 -2 7 3 0 1 2 5 5 3
9 2 2 -4 -11 -1 5 5 -1 -3 0 0 0 3 4 0 -3 -0 -2 -9 -6 -0 -1 8 2 8 -6 -1 1 -7 -4 -1 5 -12 7 -10 -2 -2 -0 -1 0 0 2 2 -5
10 6 -5 -4 -1 3 -3 -8 3 -7 12 -11 5 -1 2 5 6 1 7 2 4 -12 0 -4 -9 5 -5 -1 0 1 -1 0 -0 -1 4 3 -1 -7 1 -0 3 1 3 -2 -5
-9 -21 9 -7 -3 4 -4 -3 -3 5 -11 6 5 6 1 1 4 2 1 -1 3 9 -0 5 5 4 -7 1 3 13 -12 -2 -4 0 -5 2 -21 -1 0 -0 -1 -0 -0 -2 -2
Height
1519 1516 1513 1510 1506 1503 1500 1498 1496 1494 1491 1490 1489 1489 1489 1488 1487 1486 1481 1485 1486 1487 1489 1492 1497 1499 1499 1497 1493 1486 1485 1473 1460 1471 1460 1468 1473 1479 1484 1489 1492 1495 1502 1512 1521
1519 1515 1512 1508 1504 1501 1497 1494 1491 1489 1488 1486 1485 1485 1485 1484 1483 1478 1475 1478 1481 1483 1488 1490 1492 1495 1494 1492 1487 1486 1506 1488 1453 1455 1463 1464 1469 1480 1483 1488 1494 1497 1506 1516 1522
1518 1514 1511 1507 1502 1499 1495 1491 1487 1485 1482 1482 1481 1481 1482 1482 1480 1468 1467 1470 1476 1480 1486 1489 1490 1492 1489 1484 1480 1477 1494 1479 1463 1463 1460 1464 1469 1477 1480 1485 1493 1500 1508 1515 1522
1517 1513 1509 1505 1500 1496 1492 1488 1484 1480 1478 1476 1477 1478 1479 1481 1473 1464 1465 1466 1470 1476 1483 1485 1486 1486 1482 1477 1475 1474 1468 1469 1461 1467 1466 1462 1465 1472 1476 1481 1492 1501 1508 1513 1520
1516 1512 1508 1503 1498 1493 1488 1484 1480 1476 1473 1471 1471 1474 1476 1477 1465 1465 1466 1465 1467 1472 1477 1479 1479 1480 1476 1471 1472 1471 1464 1465 1465 1468 1468 1468 1467 1472 1478 1484 1492 1501 1508 1513 1520
1515 1510 1506 1501 1495 1489 1484 1480 1476 1472 1468 1467 1467 1469 1472 1470 1461 1464 1465 1463 1465 1469 1473 1475 1475 1477 1475 1468 1468 1466 1468 1464 1466 1466 1467 1469 1468 1473 1476 1484 1491 1499 1505 1511 1517
1514 1509 1504 1498 1492 1486 1480 1475 1472 1468 1465 1463 1462 1464 1468 1458 1458 1459 1460 1461 1465 1467 1469 1472 1474 1474 1472 1468 1467 1465 1468 1465 1464 1465 1463 1467 1468 1469 1472 1482 1489 1496 1502 1508 1514
1513 1508 1503 1496 1490 1484 1477 1472 1468 1464 1461 1460 1459 1462 1456 1451 1452 1456 1458 1461 1464 1467 1468 1470 1473 1472 1471 1467 1468 1466 1464 1468 1458 1461 1462 1465 1467 1461 1468 1478 1485 1492 1498 1503 1509
1511 1506 1501 1494 1487 1481 1475 1469 1465 1460 1458 1457 1459 1462 1451 1443 1445 1449 1454 1457 1461 1465 1466 1468 1470 1470 1470 1466 1467 1459 1465 1463 1453 1450 1454 1459 1459 1454 1463 1472 1479 1487 1494 1500 1506
1510 1504 1499 1492 1486 1479 1474 1468 1461 1459 1457 1458 1461 1464 1444 1439 1440 1443 1449 1453 1457 1461 1464 1464 1464 1465 1458 1459 1466 1459 1457 1445 1451 1441 1447 1452 1453 1456 1456 1464 1472 1481 1488 1495 1500
1508 1502 1497 1491 1485 1480 1472 1470 1467 1462 1462 1450 1446 1439 1435 1437 1438 1440 1444 1450 1453 1456 1454 1456 1458 1449 1448 1448 1448 1442 1442 1444 1432 1432 1443 1447 1446 1448 1449 1458 1464 1474 1481 1488 1494
1507 1501 1495 1490 1485 1481 1480 1478 1481 1480 1458 1444 1434 1435 1433 1436 1434 1436 1441 1442 1442 1442 1448 1452 1444 1441 1445 1444 1445 1445 1441 1437 1432 1428 1439 1440 1444 1439 1442 1448 1457 1465 1474 1481 1488
1506 1500 1494 1490 1486 1485 1484 1483 1480 1477 1462 1424 1417 1418 1422 1430 1425 1424 1431 1431 1431 1435 1433 1431 1429 1437 1437 1439 1443 1442 1440 1436 1437 1432 1431 1441 1447 1441 1437 1441 1452 1457 1466 1473 1478
1506 1500 1494 1488 1488 1485 1483 1482 1479 1476 1456 1404 1401 1402 1410 1419 1416 1415 1420 1425 1423 1423 1425 1427 1420 1425 1431 1432 1433 1439 1434 1436 1437 1439 1448 1435 1462 1440 1435 1437 1445 1451 1457 1464 1472
1504 1498 1494 1488 1487 1487 1485 1480 1477 1476 1443 1385 1398 1401 1400 1403 1392 1402 1410 1419 1410 1415 1420 1412 1415 1418 1425 1423 1425 1431 1426 1436 1440 1441 1441 1434 1443 1427 1421 1430 1432 1441 1447 1455 1462
1503 1497 1492 1492 1489 1488 1482 1478 1477 1467 1430 1386 1393 1397 1398 1400 1393 1390 1403 1413 1414 1410 1407 1407 1407 1408 1411 1417 1420 1425 1431 1433 1435 1440 1449 1438 1437 1429 1416 1416 1418 1429 1438 1445 1453
1502 1496 1491 1489 1489 1485 1481 1477 1465 1447 1390 1403 1406 1396 1389 1386 1393 1384 1393 1401 1399 1412 1405 1404 1400 1401 1405 1413 1415 1424 1432 1450 1454 1446 1442 1425 1432 1421 1405 1405 1411 1418 1427 1435 1444
1500 1495 1493 1491 1488 1483 1481 1473 1464 1423 1429 1429 1427 1416 1408 1389 1379 1381 1386 1390 1392 1391 1393 1402 1410 1392 1393 1398 1408 1416 1418 1426 1452 1440 1431 1415 1421 1410 1400 1401 1404 1410 1418 1427 1436
1497 1495 1493 1490 1486 1482 1479 1462 1446 1445 1451 1446 1430 1402 1392 1380 1379 1376 1378 1380 1381 1382 1389 1383 1388 1373 1383 1392 1395 1407 1410 1398 1400 1397 1405 1396 1397 1391 1388 1393 1402 1403 1411 1417 1425
1497 1492 1489 1487 1483 1479 1471 1458 1452 1460 1458 1454 1444 1417 1406 1394 1387 1378 1369 1369 1373 1374 1377 1368 1381 1367 1375 1386 1389 1386 1397 1416 1403 1423 1423 1399 1392 1398 1391 1393 1392 1400 1406 1411 1416
1497 1489 1486 1483 1479 1472 1459 1456 1462 1466 1461 1457 1450 1441 1436 1432 1418 1388 1372 1382 1382 1376 1371 1371 1370 1365 1363 1371 1381 1390 1390 1397 1395 1395 1409 1416 1394 1363 1372 1381 1390 1393 1401 1406 1411
1500 1489 1488 1484 1474 1464 1463 1470 1473 1465 1461 1456 1451 1442 1436 1438 1432 1410 1394 1389 1400 1391 1371 1366 1373 1375 1354 1361 1368 1372 1381 1386 1400 1406 1393 1387 1388 1366 1365 1374 1382 1392 1396 1402 1406
1502 1490 1486 1484 1477 1470 1470 1469 1468 1464 1461 1462 1457 1455 1453 1445 1444 1432 1415 1408 1404 1395 1391 1383 1374 1378 1360 1358 1362 1366 1370 1371 1380 1380 1396 1405 1394 1374 1379 1379 1382 1388 1393 1398 1403
1505 1488 1487 1482 1481 1480 1476 1473 1470 1473 1462 1464 1462 1463 1458 1442 1434 1428 1429 1418 1411 1406 1409 1403 1375 1366 1352 1346 1354 1371 1364 1367 1371 1384 1385 1386 1382 1383 1385 1387 1389 1390 1393 1398 1404
1507 1497 1500 1488 1485 1485 1485 1475 1473 1472 1466 1464 1462 1465 1461 1456 1447 1453 1438 1423 1409 1409 1401 1393 1388 1371 1355 1342 1348 1350 1361 1361 1368 1371 1381 1373 1380 1375 1383 1389 1391 1396 1401 1405 1410
1514 1508 1501 1496 1490 1489 1480 1476 1473 1467 1469 1463 1459 1461 1461 1458 1453 1446 1452 1440 1426 1420 1412 1396 1395 1380 1366 1351 1366 1370 1352 1354 1358 1366 1371 1372 1371 1367 1377 1386 1392 1398 1403 1408 1411
1514 1510 1508 1498 1489 1485 1481 1477 1475 1472 1470 1467 1466 1463 1458 1455 1454 1447 1447 1441 1434 1431 1424 1416 1397 1388 1383 1369 1374 1382 1362 1356 1353 1357 1365 1377 1373 1367 1375 1385 1393 1399 1404 1407 1410